Temperature
19 18 18 18 18 17 17 17 17 16 16 16 16 15 15 15 15 15 15 15 15 15 15 15 15 15 15 15 15 15 15 15 15 15 14 14 14 14 14 14 14 14 14
19 18 18 18 18 17 17 17 17 16 16 16 16 15 15 15 15 15 15 15 15 15 15 15 15 15 15 15 15 15 15 15 15 15 15 15 14 14 14 14 14 14 14
19 19 18 18 18 18 17 17 17 16 16 16 16 16 15 15 15 15 15 15 15 15 15 15 15 15 15 15 15 15 14 15 15 15 15 16 15 14 14 14 14 14 14
19 19 18 18 18 18 17 17 17 17 16 16 16 16 15 15 15 15 15 15 15 15 15 15 15 15 15 15 15 15 15 14 15 15 15 15 15 15 14 14 14 14 14
19 19 19 18 18 18 18 17 17 17 17 16 16 16 16 15 15 15 15 15 15 15 15 15 15 15 15 15 15 15 15 14 15 15 15 15 15 15 15 14 13 13 13
19 19 19 18 18 18 18 17 17 17 17 16 16 16 16 16 15 15 15 15 15 15 15 15 15 15 15 15 15 15 15 15 15 15 15 14 15 15 14 14 14 13 13
19 19 19 18 18 18 18 18 17 17 17 17 16 16 16 16 15 15 15 15 15 15 15 15 15 15 15 15 15 14 14 14 15 15 15 15 14 14 14 14 14 13 13
20 19 19 19 18 18 18 18 18 17 17 17 16 16 16 16 16 15 15 15 15 15 15 15 15 15 15 15 14 14 14 14 14 14 14 14 14 14 14 14 14 14 14
20 19 19 19 18 18 18 18 18 17 17 17 17 16 16 16 16 16 15 15 15 15 15 15 15 15 15 15 14 14 14 14 14 14 14 14 14 14 14 14 14 14 14
20 19 19 19 19 18 18 18 18 17 17 17 17 17 16 16 16 16 16 15 15 15 15 15 15 15 15 15 15 14 14 14 15 14 14 14 14 14 14 14 14 14 14
20 20 19 19 19 18 18 18 18 18 17 17 17 17 17 16 16 16 16 16 15 15 15 15 15 15 15 15 15 14 14 14 14 14 14 14 14 14 14 14 14 13 13
20 20 19 19 19 18 18 18 18 18 18 18 17 17 17 17 16 16 16 16 15 15 15 15 15 15 15 15 14 14 14 14 14 14 14 14 14 14 14 14 13 13 13
20 19 19 19 19 19 18 18 18 18 18 18 17 17 17 17 17 16 16 16 16 15 15 15 15 15 15 15 14 14 14 14 14 14 13 13 13 13 13 13 13 13 13
20 19 19 19 19 19 19 19 18 18 18 18 18 17 17 17 17 16 16 16 16 16 15 15 15 15 15 15 14 14 14 14 14 13 13 13 13 13 13 13 13 13 12
20 19 19 19 19 19 19 19 19 19 18 18 18 18 17 17 17 16 16 16 16 16 15 15 15 15 15 15 15 14 14 14 14 13 13 13 13 13 13 13 12 12 12
20 19 19 19 19 19 19 19 19 19 19 18 18 18 18 17 17 17 16 16 16 16 15 15 15 15 15 15 15 14 14 14 13 13 13 13 13 13 13 13 13 12 12
20 20 19 19 19 19 19 19 19 19 19 18 18 18 18 17 17 17 16 16 16 16 16 15 15 15 15 15 15 14 14 13 13 13 13 13 13 13 12 12 12 12 12
19 20 20 20 19 19 19 19 19 19 18 18 18 18 18 17 17 17 16 16 16 16 16 15 15 15 15 15 14 14 14 13 13 13 13 12 12 12 12 12 12 12 12
19 20 20 20 19 19 19 19 18 18 18 18 18 18 18 17 17 17 16 16 16 16 15 15 15 15 15 15 14 14 13 13 13 13 13 12 12 12 12 12 11 11 11
20 20 20 19 19 19 19 19 18 18 18 18 18 18 18 17 17 17 16 16 16 16 15 15 15 15 14 14 14 14 13 13 13 13 13 12 12 12 12 11 11 11 11
20 20 20 19 19 19 19 18 18 18 18 18 18 18 18 17 17 17 16 16 16 16 15 15 15 14 14 14 14 14 13 13 13 12 12 12 12 12 12 11 11 11 11
19 19 19 19 19 19 19 18 18 18 18 18 18 17 17 17 17 16 16 16 16 15 15 15 15 14 14 14 14 14 13 13 12 12 12 12 12 12 11 11 11 11 10
19 19 19 19 19 19 18 18 18 18 18 18 17 17 17 17 16 16 16 16 15 15 15 15 15 14 14 14 14 13 13 13 12 12 12 12 11 11 11 11 11 10 10
19 18 18 18 18 18 18 18 18 18 17 17 17 17 17 16 16 16 16 15 15 15 15 15 14 14 14 14 14 13 13 13 12 12 12 11 11 11 10 10 10 10 10
18 18 18 18 18 18 18 17 17 17 17 17 17 16 16 16 16 16 16 15 15 15 15 15 14 14 14 14 13 13 13 12 12 12 11 11 11 11 10 10 10 10 9
18 18 18 17 17 17 17 17 17 16 16 16 16 16 16 16 16 15 15 15 15 15 14 14 14 14 13 13 13 13 12 12 12 11 11 11 11 10 10 10 10 9 9
Wind_Speed
8 7 7 7 8 7 7 7 6 6 4 3 3 3 4 4 5 6 7 6 6 6 6 4 5 4 5 5 5 6 7 6 6 6 7 7 9 8 7 8 8 9 11
10 9 9 8 8 8 7 7 6 6 5 3 3 3 3 4 4 5 6 6 6 6 5 5 4 4 4 4 5 5 4 4 2 2 3 3 5 6 7 7 7 8 8
12 12 11 10 9 8 8 7 7 6 5 5 4 4 4 3 4 4 5 6 7 7 6 6 5 4 3 4 3 3 3 3 3 3 1 1 2 3 5 7 7 7 7
11 11 11 11 10 9 8 8 7 7 6 5 4 4 3 3 4 3 4 5 6 6 6 6 6 5 4 4 3 3 2 2 2 2 3 3 2 1 3 4 6 7 8
12 12 12 11 11 10 9 8 8 7 6 5 4 3 3 3 3 3 4 4 5 6 6 6 5 5 5 5 4 3 2 1 1 1 2 3 2 1 2 3 3 5 6
12 12 11 11 10 9 9 9 8 7 6 6 5 4 4 4 4 4 4 3 4 4 5 5 5 5 5 5 4 4 4 3 3 2 2 2 2 2 2 3 3 3 4
13 13 13 13 12 11 10 10 9 8 8 7 6 5 5 5 4 4 3 3 3 3 4 4 5 5 5 5 5 5 5 5 4 3 3 3 3 2 2 3 2 2 2
13 13 14 13 13 13 12 11 10 9 8 8 6 6 6 4 3 3 3 3 3 3 4 4 4 5 5 4 4 4 5 4 4 5 5 3 4 3 2 2 1 2 2
13 13 14 14 13 13 13 12 11 10 9 9 7 6 6 5 4 4 3 3 3 3 3 4 4 4 4 4 4 4 4 4 4 4 4 3 3 3 2 1 1 1 1
13 13 13 13 13 13 13 12 12 11 10 9 8 6 6 6 5 4 4 3 3 4 3 3 4 4 4 4 3 4 4 4 5 3 4 4 3 3 2 1 1 2 1
12 12 12 13 13 13 13 12 12 11 10 10 9 8 7 6 6 5 4 4 4 4 4 3 3 3 3 4 3 3 3 3 4 4 4 4 4 3 2 2 2 2 2
11 11 12 13 13 13 13 13 12 12 11 10 9 9 8 7 7 6 6 5 5 4 4 4 3 3 3 3 3 3 3 3 3 3 3 3 3 3 2 2 2 2 1
10 11 12 13 14 14 13 13 12 11 11 10 10 9 9 8 8 7 7 6 6 5 5 4 3 3 2 2 2 2 2 2 2 2 2 2 2 2 2 2 2 2 2
9 11 11 13 13 13 13 13 12 11 11 11 10 10 9 9 8 7 7 7 6 6 5 4 4 3 3 2 2 2 2 2 2 2 2 1 2 1 1 1 2 1 1
9 11 11 12 13 13 13 13 12 12 12 12 11 11 10 9 8 8 8 7 6 6 5 5 4 3 3 2 2 2 2 2 2 2 2 2 3 5 3 1 1 1 1
9 10 11 12 13 14 14 13 12 12 12 12 12 10 10 9 9 9 8 7 7 6 6 5 5 4 3 3 1 2 3 2 3 2 2 3 3 3 2 2 2 2 1
7 9 10 11 12 13 13 13 13 12 13 12 11 11 10 10 10 9 9 8 8 7 6 6 5 5 4 6 4 3 2 2 2 2 2 2 2 2 1 3 4 1 1
6 7 8 9 10 11 12 12 12 12 12 12 12 11 11 11 10 9 9 9 8 8 7 6 6 5 4 6 5 5 4 3 2 3 3 3 3 2 1 1 2 1 1
5 6 6 7 8 10 11 11 12 12 12 12 12 12 12 11 11 10 10 9 8 8 7 7 7 6 6 7 6 6 4 4 4 3 3 3 3 3 2 3 3 2 2
3 4 5 6 7 8 10 11 11 11 12 11 11 11 12 12 12 11 10 9 8 8 7 7 7 7 6 8 8 8 5 5 4 4 4 3 3 3 4 5 4 4 4
3 4 5 5 5 7 9 10 10 10 10 9 10 10 11 11 11 10 9 8 8 8 8 8 7 7 7 8 9 8 6 5 5 5 5 4 5 5 5 6 6 4 4
4 4 5 4 4 6 8 8 8 8 7 8 9 9 10 9 9 9 9 8 9 8 8 8 7 6 7 6 8 10 9 7 7 6 5 4 6 7 7 7 4 4 5
4 4 5 5 5 5 6 7 7 7 7 8 8 8 9 9 9 10 9 8 8 7 7 7 7 6 6 6 8 10 11 10 8 6 4 3 6 7 7 8 7 7 6
4 4 5 5 4 4 5 5 5 6 7 8 8 8 8 8 8 7 8 8 8 8 8 8 7 7 6 6 6 7 7 9 9 7 6 7 7 8 7 6 7 7 7
4 4 5 4 4 4 4 4 4 6 7 7 6 6 7 7 7 7 6 8 8 7 8 7 7 7 7 7 7 7 6 6 7 7 6 6 6 7 7 7 7 7 8
4 5 5 5 4 4 4 3 4 5 6 6 6 5 5 5 5 5 5 3 4 3 5 5 6 6 5 3 7 8 8 7 6 6 7 8 8 8 8 8 8 8 9
Wind_Direction
170 167 169 173 170 170 170 160 162 157 151 138 127 109 90 79 72 62 53 51 48 49 56 58 65 67 87 95 109 113 114 109 109 105 95 82 68 61 56 55 58 58 55
172 172 178 179 179 176 177 171 167 165 159 140 121 109 96 85 76 71 62 51 52 52 56 59 72 78 91 97 105 118 121 118 117 120 125 116 95 65 55 57 55 55 56
182 180 182 182 181 182 181 178 172 166 163 151 134 127 119 118 102 83 66 52 54 57 55 56 64 73 95 100 100 116 125 122 93 43 14 72 88 99 65 54 55 52 49
191 186 186 186 187 186 184 185 178 171 164 163 161 149 133 107 91 83 80 77 63 60 57 60 61 67 73 91 99 89 104 128 114 80 39 42 85 120 107 75 60 54 48
193 190 190 188 187 183 183 183 177 175 172 171 159 163 135 114 113 105 94 83 74 64 63 59 62 66 71 73 73 71 71 88 74 77 91 90 96 85 107 100 82 65 50
195 192 189 184 184 182 180 179 178 175 174 175 170 172 145 140 134 122 106 98 90 77 70 65 68 70 71 72 71 76 77 72 71 71 81 97 100 100 100 111 102 77 58
192 191 189 188 185 183 183 181 179 177 179 179 178 173 165 159 150 139 122 111 100 90 80 76 76 74 73 71 72 79 78 81 79 73 69 66 65 70 86 108 99 90 85
192 190 191 191 189 187 186 185 184 183 181 185 180 176 169 169 153 152 135 121 102 95 94 86 80 80 78 80 75 76 73 74 76 73 73 74 71 75 80 84 103 103 89
190 191 190 192 190 189 188 189 189 188 184 186 182 180 175 173 163 164 153 134 121 114 109 104 98 90 85 79 80 76 78 74 70 73 76 72 75 75 62 64 358 350 53
188 190 191 191 191 190 189 190 195 192 187 188 183 180 180 176 174 170 162 157 142 133 135 125 117 105 97 93 83 82 72 83 77 70 76 72 75 72 65 53 20 359 27
189 189 189 190 188 186 187 188 192 191 187 188 185 182 182 179 178 178 171 170 159 155 150 140 127 114 108 106 101 93 93 91 92 91 87 83 72 74 71 56 58 57 70
190 189 186 185 186 188 188 189 191 189 188 187 186 186 181 182 184 180 178 175 166 162 159 149 141 124 117 113 113 112 107 96 93 93 92 89 86 75 68 65 74 72 68
189 187 185 187 187 189 190 189 190 189 185 185 186 184 183 185 186 182 179 179 173 170 169 164 157 145 137 130 129 130 121 112 108 106 99 93 99 98 91 81 75 75 76
190 188 189 190 188 190 191 189 189 187 184 183 187 188 188 187 185 181 178 180 180 180 178 173 167 161 155 153 150 145 137 129 122 115 106 95 96 93 105 101 93 91 98
191 191 193 193 190 190 191 190 189 186 184 185 189 192 189 185 183 176 178 178 178 183 180 175 172 167 167 162 172 169 165 157 146 141 132 97 64 35 28 24 101 128 165
194 195 196 194 194 193 192 191 190 187 186 189 192 190 187 181 181 180 179 178 179 182 179 182 179 175 169 123 128 249 184 177 170 162 152 138 136 111 99 50 25 344 267
195 197 198 197 197 196 194 192 192 188 189 192 192 188 187 184 185 182 179 180 182 181 183 188 187 187 160 146 170 241 226 201 196 190 179 166 149 177 155 150 177 179 330
195 197 198 196 195 193 191 190 187 188 191 193 193 191 190 187 183 181 183 188 188 184 189 193 193 192 172 160 177 207 221 213 207 207 206 197 191 185 209 214 211 212 213
196 193 193 189 187 186 184 183 186 189 192 194 195 192 191 188 184 186 189 190 189 190 194 197 198 198 189 171 181 204 213 221 220 218 222 224 222 137 220 235 231 235 242
174 176 174 176 179 181 179 182 188 191 197 197 197 193 191 190 191 193 193 189 189 193 194 197 205 207 207 174 185 212 216 225 225 225 225 218 239 178 211 234 240 247 252
142 155 156 161 171 174 174 183 190 196 198 194 194 191 191 193 193 192 190 188 189 191 197 200 207 213 215 186 188 209 225 228 232 230 230 220 192 215 226 247 252 262 269
132 149 151 149 154 165 174 184 194 196 189 183 186 188 189 189 187 186 188 191 191 193 199 205 209 215 212 211 199 206 225 246 237 240 240 225 185 211 225 234 246 255 255
134 146 150 145 146 161 176 184 187 184 180 178 182 185 185 186 186 186 186 189 193 201 206 208 214 215 213 206 201 207 216 228 238 246 248 231 197 213 225 227 231 235 245
132 139 142 143 145 155 168 178 173 175 178 180 183 185 185 185 186 189 192 194 197 204 211 214 218 219 213 214 209 213 218 217 232 246 231 214 217 229 245 234 228 237 244
120 134 145 145 142 145 153 165 169 175 180 181 180 183 186 187 190 192 201 208 208 210 211 216 218 219 223 216 202 208 216 219 223 229 233 234 232 233 236 240 240 240 241
123 126 127 130 132 132 135 143 165 181 183 181 180 181 182 185 190 194 198 204 230 210 218 234 237 232 234 198 189 207 218 215 207 219 234 237 238 240 242 242 243 242 244
Height
1560 1563 1565 1567 1569 1570 1572 1572 1573 1574 1574 1574 1575 1575 1574 1574 1573 1572 1571 1570 1569 1569 1568 1568 1567 1567 1567 1567 1568 1567 1568 1568 1568 1569 1569 1569 1569 1569 1568 1568 1568 1567 1566
1559 1562 1564 1566 1568 1570 1572 1573 1574 1574 1575 1575 1575 1575 1575 1575 1574 1573 1572 1571 1571 1570 1570 1570 1569 1569 1568 1568 1569 1569 1569 1569 1570 1571 1571 1571 1572 1571 1571 1570 1569 1569 1568
1557 1560 1563 1565 1567 1569 1571 1573 1574 1574 1575 1575 1575 1575 1575 1576 1575 1575 1574 1573 1572 1571 1571 1571 1571 1570 1570 1570 1570 1570 1570 1571 1571 1572 1572 1572 1572 1573 1573 1572 1572 1571 1570
1556 1558 1561 1564 1566 1568 1570 1572 1573 1574 1575 1575 1576 1577 1577 1577 1577 1576 1575 1575 1574 1573 1573 1572 1572 1572 1572 1571 1572 1572 1572 1572 1572 1572 1572 1573 1573 1574 1574 1575 1573 1573 1572
1554 1556 1559 1562 1565 1567 1569 1571 1573 1574 1575 1576 1576 1577 1578 1578 1577 1577 1577 1577 1576 1575 1574 1574 1574 1573 1573 1573 1573 1572 1573 1573 1573 1574 1573 1573 1573 1574 1575 1575 1576 1575 1574
1551 1554 1557 1560 1563 1566 1568 1570 1572 1573 1575 1576 1577 1577 1578 1578 1578 1578 1578 1578 1577 1577 1576 1576 1575 1575 1575 1574 1574 1574 1574 1574 1574 1574 1574 1575 1575 1575 1576 1576 1576 1576 1575
1548 1552 1555 1558 1561 1563 1566 1568 1571 1572 1574 1576 1577 1577 1578 1578 1579 1579 1579 1579 1579 1578 1578 1577 1577 1577 1576 1576 1576 1575 1575 1575 1575 1575 1575 1575 1575 1576 1576 1576 1577 1576 1576
1545 1548 1552 1555 1558 1561 1564 1567 1569 1571 1573 1575 1576 1577 1578 1578 1579 1579 1579 1580 1580 1579 1579 1579 1578 1578 1577 1577 1577 1577 1577 1577 1577 1576 1576 1576 1576 1576 1577 1577 1578 1577 1578
1542 1545 1549 1552 1556 1559 1562 1565 1568 1570 1572 1574 1576 1577 1578 1578 1579 1579 1580 1580 1580 1580 1580 1580 1579 1579 1578 1578 1578 1578 1578 1578 1578 1577 1577 1577 1577 1577 1577 1577 1578 1579 1578
1539 1543 1546 1550 1553 1557 1560 1563 1566 1569 1571 1573 1575 1576 1577 1578 1578 1579 1580 1580 1580 1580 1580 1581 1581 1580 1580 1579 1579 1579 1579 1579 1578 1578 1578 1578 1578 1577 1577 1577 1577 1577 1578
1536 1540 1543 1547 1550 1554 1557 1560 1564 1566 1569 1571 1573 1575 1576 1577 1578 1579 1579 1580 1580 1580 1581 1581 1581 1581 1581 1580 1580 1580 1580 1580 1580 1579 1579 1579 1578 1578 1578 1577 1577 1577 1578
1534 1537 1541 1544 1548 1551 1555 1558 1561 1564 1566 1569 1571 1573 1575 1576 1577 1578 1579 1579 1580 1581 1581 1581 1582 1581 1581 1581 1581 1581 1580 1580 1580 1580 1580 1579 1579 1578 1578 1578 1578 1577 1577
1532 1535 1538 1541 1544 1548 1552 1555 1558 1561 1564 1567 1569 1571 1573 1574 1576 1577 1578 1579 1580 1580 1581 1581 1582 1582 1581 1581 1581 1581 1581 1581 1581 1580 1580 1580 1580 1579 1579 1578 1578 1578 1577
1529 1532 1535 1538 1541 1545 1549 1552 1555 1558 1561 1564 1567 1569 1571 1573 1574 1576 1577 1578 1579 1580 1581 1581 1581 1581 1581 1581 1581 1581 1581 1581 1581 1580 1580 1580 1580 1580 1579 1579 1578 1578 1577
1527 1530 1532 1535 1538 1542 1546 1549 1552 1556 1558 1561 1564 1567 1569 1571 1573 1574 1575 1577 1578 1579 1580 1580 1581 1581 1581 1581 1581 1581 1581 1581 1581 1580 1580 1580 1579 1579 1578 1578 1578 1577 1577
1525 1527 1530 1533 1535 1539 1542 1546 1549 1552 1556 1558 1561 1564 1567 1568 1570 1572 1574 1575 1576 1577 1578 1579 1579 1580 1580 1580 1580 1580 1580 1580 1580 1580 1579 1579 1578 1578 1577 1577 1576 1576 1576
1522 1524 1527 1530 1532 1536 1539 1542 1546 1549 1552 1555 1558 1561 1563 1565 1568 1570 1571 1573 1574 1576 1577 1577 1578 1579 1579 1579 1579 1579 1579 1579 1579 1579 1579 1578 1578 1577 1577 1576 1575 1575 1574
1520 1522 1525 1527 1530 1533 1536 1540 1543 1546 1549 1552 1555 1557 1560 1562 1564 1567 1569 1571 1572 1574 1575 1576 1577 1577 1577 1577 1578 1578 1578 1578 1578 1577 1577 1577 1577 1576 1575 1575 1574 1574 1573
1518 1520 1522 1524 1527 1530 1533 1536 1539 1542 1545 1548 1551 1553 1556 1559 1561 1563 1565 1568 1569 1571 1573 1574 1575 1575 1576 1576 1576 1576 1576 1576 1576 1576 1575 1575 1575 1574 1573 1573 1572 1572 1571
1516 1518 1520 1522 1525 1528 1530 1533 1536 1539 1541 1544 1547 1550 1553 1555 1557 1560 1562 1564 1566 1568 1570 1571 1572 1573 1573 1573 1574 1574 1574 1574 1574 1573 1573 1573 1572 1572 1571 1571 1570 1570 1569
1515 1517 1519 1521 1523 1525 1528 1530 1533 1535 1538 1541 1544 1546 1549 1551 1554 1556 1559 1561 1563 1565 1566 1567 1569 1569 1570 1570 1571 1571 1571 1571 1571 1571 1570 1570 1569 1569 1568 1568 1567 1567 1566
1515 1516 1517 1519 1521 1523 1526 1528 1530 1533 1536 1538 1540 1543 1545 1548 1550 1552 1555 1557 1559 1561 1562 1564 1565 1565 1566 1567 1567 1567 1568 1568 1568 1567 1567 1567 1566 1566 1565 1564 1564 1563 1563
1514 1515 1517 1518 1520 1522 1524 1526 1528 1530 1533 1535 1537 1539 1542 1544 1546 1549 1551 1553 1555 1556 1558 1559 1560 1561 1562 1562 1563 1563 1563 1563 1563 1563 1563 1563 1562 1562 1561 1560 1560 1559 1558
1513 1514 1516 1517 1519 1521 1522 1524 1526 1528 1530 1532 1534 1536 1538 1541 1543 1545 1547 1549 1550 1552 1553 1555 1556 1557 1557 1558 1558 1559 1559 1559 1559 1559 1558 1558 1558 1557 1556 1556 1555 1555 1554
1512 1513 1515 1516 1518 1519 1521 1522 1524 1526 1528 1530 1532 1533 1535 1537 1539 1541 1543 1545 1546 1548 1549 1550 1551 1552 1552 1553 1554 1554 1554 1554 1554 1554 1553 1553 1552 1552 1551 1551 1550 1549 1549
1512 1513 1514 1515 1517 1518 1519 1521 1523 1524 1526 1528 1529 1530 1532 1533 1535 1537 1539 1540 1542 1543 1544 1545 1546 1546 1547 1548 1548 1549 1549 1549 1549 1549 1548 1547 1547 1546 1545 1545 1544 1544 1543